Temp
85 95 98 94 85 87 80 80 86 85 87 92 93 90 90 92 86 79 100 100 97 99 94 88 80 81 81 81 80 80 80 80 80 80 80 80 80 80 80 80 80 81 81 82 82 82 82 82 81
96 93 95 96 82 78 78 83 81 86 89 92 92 91 90 85 93 96 98 96 96 97 94 93 80 80 81 80 80 79 79 79 79 80 80 80 80 80 80 80 80 81 81 82 82 81 81 81 81
91 93 92 90 85 79 79 81 84 89 90 90 90 94 90 84 92 94 97 96 96 94 94 91 80 80 80 80 79 79 79 79 79 80 80 80 80 79 79 80 80 81 82 82 82 81 81 81 81
95 95 94 83 77 77 79 83 85 88 90 93 90 85 91 95 91 95 97 97 96 95 96 83 80 80 80 80 79 79 79 79 79 79 79 79 79 79 79 79 80 81 81 82 81 81 81 80 80
97 95 84 81 75 79 83 85 87 86 87 89 91 84 86 95 97 97 97 99 99 99 98 92 80 80 80 80 80 79 79 79 79 79 79 79 79 79 79 79 80 81 81 81 81 81 80 80 80
90 91 80 75 75 79 84 86 87 86 88 88 87 86 87 99 97 99 100 101 101 99 98 96 81 80 79 80 79 79 78 78 79 79 79 79 79 79 79 79 79 80 80 81 80 80 79 79 79
86 85 79 78 75 77 79 87 84 85 86 85 91 83 90 95 99 102 101 103 102 101 100 98 98 87 79 79 79 79 78 78 78 78 78 78 78 78 78 78 79 79 79 79 80 79 79 79 79
94 90 76 78 75 73 81 84 86 85 83 92 92 82 84 92 98 102 103 102 103 105 104 101 97 99 95 94 79 79 78 78 78 78 78 78 78 78 78 77 78 79 79 79 79 79 79 78 78
89 82 77 73 75 76 83 81 87 88 86 87 89 88 91 95 98 98 98 100 105 101 102 101 100 96 97 100 92 79 79 78 78 79 78 79 89 90 88 84 81 78 78 78 78 78 78 78 78
88 85 74 79 80 79 81 81 82 83 83 83 85 91 93 95 93 93 95 96 99 100 101 102 96 96 97 97 94 93 93 91 89 90 89 88 90 92 92 88 79 78 78 78 78 78 78 78 93
83 76 78 79 80 81 80 81 83 81 79 82 81 86 90 91 92 91 93 95 97 99 100 102 98 93 95 97 95 96 95 93 92 90 90 90 91 89 91 92 90 87 81 89 85 87 88 90 94
76 79 79 80 80 79 78 82 80 81 81 86 87 88 89 89 90 90 91 92 94 95 97 99 100 97 93 97 96 96 96 94 93 93 90 89 89 89 88 90 93 90 93 91 91 93 91 91 91
77 77 79 80 80 80 80 79 79 80 84 87 88 87 87 88 89 92 91 92 92 90 91 93 94 93 94 92 95 95 95 95 92 92 90 91 91 88 89 86 88 92 93 93 91 92 92 91 91
77 78 78 80 79 80 77 79 78 82 85 84 85 84 86 86 87 88 88 87 86 88 88 89 88 87 89 89 91 93 92 95 93 92 91 88 90 89 88 86 82 85 91 93 92 91 91 91 92
78 75 77 78 78 78 80 77 75 82 84 82 82 84 84 85 86 85 86 84 86 86 86 84 84 87 85 87 89 92 95 96 94 92 83 84 88 87 85 86 84 82 81 88 88 88 89 89 91
75 75 72 78 76 77 77 70 79 83 82 81 79 80 81 83 84 84 84 85 85 84 82 82 86 85 84 86 90 93 95 93 94 92 92 89 88 86 84 86 86 84 86 77 86 88 88 88 89
73 69 68 71 79 75 75 70 79 84 82 79 78 79 79 81 81 81 83 84 83 82 81 80 81 82 83 84 89 90 90 91 93 93 93 91 89 89 82 82 85 83 80 78 73 81 87 87 88
64 66 69 68 75 75 72 73 78 81 81 77 77 77 78 78 78 80 82 82 82 82 80 79 80 79 80 83 86 89 91 91 92 92 93 91 89 88 83 80 83 82 82 81 73 77 77 85 88
69 67 66 72 75 68 70 70 75 79 79 76 76 75 76 77 80 81 81 81 80 80 78 77 77 77 78 83 87 89 88 90 91 91 90 89 88 87 86 87 87 86 83 84 80 75 77 69 78
68 66 67 70 73 70 69 68 74 76 74 74 73 73 75 76 78 79 80 80 79 78 77 76 76 76 77 81 86 89 90 93 94 94 90 88 87 86 86 85 87 86 87 83 81 76 74 77 85
69 66 65 63 68 72 69 66 71 72 73 73 75 75 76 75 75 77 78 78 79 77 77 76 75 76 76 77 83 85 87 88 88 89 88 88 87 87 86 85 85 84 84 85 83 78 76 72 71
62 68 65 64 62 57 69 54 67 70 70 71 72 73 75 75 77 78 78 78 79 79 79 77 75 76 78 78 79 82 84 85 90 89 91 89 86 87 87 84 84 82 83 79 80 79 77 74 69
64 68 65 64 63 61 63 56 65 68 66 70 73 73 74 75 76 77 78 79 81 81 80 78 75 76 76 77 77 82 80 88 88 90 84 82 86 85 86 84 83 81 81 80 79 77 74 75 73
69 66 66 66 62 54 59 57 62 67 67 71 73 73 72 74 76 77 80 80 80 82 80 80 75 73 76 77 78 78 80 83 86 85 85 85 88 88 84 84 83 82 79 74 75 76 76 75 70
66 61 52 52 54 53 60 55 59 68 70 70 70 71 73 74 75 75 77 78 79 79 77 78 77 72 73 77 78 79 79 78 80 82 85 84 87 87 85 82 81 82 81 80 79 78 76 76 71
63 59 52 41 46 51 60 51 60 67 69 70 71 71 72 72 74 74 75 77 78 77 75 75 75 72 70 74 77 78 79 83 83 83 83 84 86 85 81 81 79 80 80 79 77 77 75 75 74
61 55 62 51 54 49 56 62 67 70 66 68 69 68 68 70 71 72 75 76 75 73 73 73 72 71 70 69 75 75 77 77 78 78 79 78 78 78 78 78 77 77 77 77 73 72 68 68 65
63 66 50 53 36 39 50 52 56 61 63 65 65 67 69 71 70 70 72 72 72 73 73 71 71 69 67 69 73 75 75 77 77 77 73 71 70 69 72 75 74 72 69 69 68 67 64 62 63
60 58 58 56 50 39 40 49 65 61 65 63 66 66 67 67 68 70 70 71 72 74 74 71 68 67 62 65 71 74 75 76 76 74 74 71 72 73 74 73 71 66 66 64 61 61 61 58 57
60 57 57 43 41 45 42 42 66 65 66 65 62 61 67 68 67 68 68 66 70 72 72 72 69 60 61 66 70 73 74 74 73 72 71 69 69 70 67 64 64 60 59 58 57 56 57 56 54
MSLP
1010.63 1009.77 1009.25 1008.14 1006.31 1004.07 1003.36 1004.04 1004.34 1003.77 1003.50 1004.01 1004.14 1003.60 1003.27 1003.64 1003.76 1004.30 1005.98 1006.35 1007.01 1007.04 1008.18 1009.24 1009.57 1009.69 1009.87 1010.06 1010.34 1010.62 1010.86 1010.83 1010.94 1011.22 1011.54 1011.74 1011.92 1012.10 1012.17 1012.20 1012.32 1012.55 1012.66 1012.87 1013.02 1013.12 1013.17 1013.25 1013.34
1009.84 1009.54 1008.69 1006.52 1004.76 1003.07 1003.76 1004.72 1004.46 1004.65 1004.82 1004.71 1004.31 1004.08 1003.63 1004.63 1005.48 1005.17 1005.54 1007.06 1007.28 1007.38 1008.04 1008.58 1009.71 1009.87 1010.16 1010.39 1010.73 1010.87 1010.98 1011.01 1011.15 1011.33 1011.61 1011.86 1012.01 1012.12 1012.27 1012.38 1012.51 1012.68 1012.81 1012.94 1013.09 1013.24 1013.30 1013.31 1013.38
1010.04 1009.27 1006.91 1005.16 1004.33 1003.31 1003.92 1005.33 1005.34 1005.02 1005.19 1004.74 1004.28 1004.42 1005.12 1006.41 1006.57 1006.51 1007.09 1007.30 1007.47 1007.80 1008.17 1008.83 1009.74 1009.96 1010.08 1010.37 1010.66 1010.78 1010.84 1011.01 1011.17 1011.40 1011.57 1011.90 1012.10 1012.19 1012.36 1012.57 1012.61 1012.77 1012.89 1013.03 1013.10 1013.25 1013.36 1013.45 1013.47
1008.79 1007.87 1006.75 1005.08 1004.64 1005.85 1005.69 1006.06 1006.16 1005.19 1005.22 1005.13 1005.11 1005.34 1006.58 1007.45 1007.26 1007.17 1007.32 1007.41 1007.45 1007.90 1008.08 1009.49 1009.96 1010.17 1010.35 1010.49 1010.70 1010.80 1010.88 1011.06 1011.18 1011.29 1011.44 1011.70 1011.91 1012.11 1012.32 1012.52 1012.73 1012.82 1012.93 1013.03 1013.14 1013.22 1013.40 1013.48 1013.52
1008.16 1006.55 1005.08 1004.76 1005.74 1006.55 1006.65 1006.89 1006.53 1005.82 1005.66 1005.58 1005.29 1005.79 1006.76 1007.30 1007.23 1007.28 1007.27 1007.20 1007.08 1007.50 1007.99 1009.20 1010.13 1010.32 1010.49 1010.65 1010.90 1011.14 1011.27 1011.37 1011.47 1011.54 1011.58 1011.72 1011.82 1012.03 1012.25 1012.39 1012.61 1012.73 1012.86 1013.02 1013.12 1013.25 1013.36 1013.52 1013.53
1006.75 1006.20 1004.70 1004.75 1006.16 1006.91 1007.12 1007.34 1006.85 1006.55 1006.37 1006.40 1006.17 1006.27 1007.00 1007.46 1007.42 1007.11 1007.06 1006.95 1007.23 1007.46 1007.92 1008.57 1010.05 1010.36 1010.53 1010.70 1010.93 1011.02 1011.18 1011.41 1011.58 1011.69 1011.80 1011.88 1012.00 1012.09 1012.21 1012.41 1012.59 1012.75 1012.80 1012.92 1013.05 1013.17 1013.30 1013.44 1013.49
1006.36 1005.55 1005.04 1005.29 1006.56 1007.06 1007.86 1007.86 1007.54 1007.13 1006.98 1007.09 1007.01 1006.38 1006.98 1007.36 1007.77 1007.32 1007.06 1006.89 1007.07 1007.48 1007.76 1008.14 1008.62 1009.81 1010.45 1010.63 1010.89 1011.17 1011.22 1011.37 1011.51 1011.66 1011.76 1011.83 1011.97 1012.10 1012.27 1012.39 1012.44 1012.64 1012.79 1012.88 1012.96 1013.03 1013.14 1013.27 1013.30
1007.19 1006.06 1006.04 1006.41 1006.71 1007.48 1008.41 1008.01 1008.17 1007.86 1007.73 1007.74 1007.64 1007.13 1007.15 1008.05 1008.10 1007.46 1007.21 1007.00 1006.91 1007.09 1007.42 1007.69 1008.19 1008.31 1009.00 1009.39 1010.62 1010.88 1011.14 1011.33 1011.37 1011.62 1011.89 1012.03 1012.02 1012.08 1012.13 1012.28 1012.37 1012.41 1012.59 1012.70 1012.83 1012.90 1012.96 1013.03 1013.02
1007.79 1006.24 1006.06 1007.17 1007.28 1008.02 1008.59 1008.32 1008.47 1008.75 1008.20 1008.30 1008.30 1008.37 1008.62 1008.47 1008.17 1007.65 1007.25 1006.86 1006.68 1007.24 1007.39 1007.56 1007.80 1008.30 1008.37 1008.24 1009.16 1010.56 1010.83 1011.08 1011.35 1011.50 1011.73 1011.90 1011.42 1011.33 1011.47 1011.58 1011.72 1012.08 1012.26 1012.38 1012.51 1012.63 1012.73 1012.75 1012.68
1006.98 1006.48 1007.66 1008.43 1008.75 1008.69 1008.97 1008.84 1008.70 1008.49 1008.38 1008.48 1008.70 1008.83 1008.78 1008.49 1008.31 1007.95 1007.45 1007.04 1006.68 1006.76 1006.74 1007.04 1007.90 1008.22 1008.18 1008.48 1008.86 1009.25 1009.40 1009.87 1010.19 1010.40 1010.56 1011.01 1010.67 1010.51 1010.53 1010.72 1011.57 1012.00 1012.17 1012.08 1012.10 1012.22 1012.38 1012.45 1011.29
1007.88 1007.79 1008.84 1009.25 1009.59 1009.57 1009.23 1008.96 1009.23 1008.80 1008.36 1009.11 1009.09 1008.90 1008.83 1008.66 1008.34 1008.27 1007.90 1007.57 1007.33 1007.33 1007.21 1007.13 1007.38 1008.35 1008.29 1008.00 1008.44 1008.45 1008.74 1009.02 1009.28 1009.74 1009.97 1010.10 1010.10 1010.39 1010.41 1010.42 1010.68 1011.18 1011.54 1011.20 1011.32 1011.24 1011.36 1010.86 1010.31
1008.74 1009.34 1009.46 1009.67 1010.16 1009.91 1009.47 1009.57 1009.10 1009.26 1009.31 1009.62 1009.46 1009.37 1008.94 1008.58 1008.37 1008.30 1008.24 1008.19 1008.08 1007.93 1007.67 1007.44 1007.41 1007.71 1008.32 1007.93 1008.19 1008.05 1008.13 1008.59 1008.72 1008.78 1009.43 1009.70 1009.88 1009.95 1010.20 1009.93 1009.58 1009.95 1009.85 1009.94 1010.11 1009.66 1009.90 1009.93 1010.13
1009.05 1009.69 1009.96 1010.19 1010.20 1010.14 1010.28 1009.48 1009.30 1009.23 1009.69 1009.73 1009.48 1009.29 1008.89 1008.62 1008.57 1008.42 1008.55 1008.48 1008.41 1008.35 1008.28 1008.21 1008.16 1008.19 1008.06 1008.09 1008.07 1007.95 1007.84 1007.96 1008.49 1008.63 1009.05 1009.25 1009.21 1009.35 1009.72 1010.04 1009.86 1009.33 1009.35 1009.26 1009.54 1009.42 1009.42 1009.53 1009.72
1010.07 1009.98 1009.95 1010.02 1009.93 1010.01 1009.93 1009.32 1009.68 1008.89 1009.54 1009.47 1009.32 1009.15 1009.00 1008.90 1008.77 1008.66 1008.67 1008.77 1008.82 1008.66 1008.55 1008.50 1008.43 1008.29 1008.18 1008.05 1007.85 1007.71 1007.81 1007.50 1008.01 1008.30 1008.55 1009.05 1008.84 1009.00 1009.48 1009.89 1010.01 1009.76 1009.19 1008.90 1008.97 1009.08 1009.05 1009.10 1009.03
1010.17 1009.60 1009.91 1009.82 1009.82 1009.51 1009.92 1008.24 1008.77 1008.86 1009.08 1009.07 1009.10 1009.04 1009.02 1008.87 1009.05 1008.98 1009.06 1009.01 1008.93 1008.83 1008.63 1008.61 1008.51 1008.25 1008.03 1007.68 1007.56 1007.42 1007.05 1007.07 1007.41 1007.73 1008.85 1009.00 1008.57 1008.64 1009.24 1009.46 1009.71 1009.70 1009.17 1008.84 1009.12 1009.03 1008.90 1008.83 1008.61
1009.58 1009.43 1008.44 1008.84 1009.80 1009.84 1009.80 1007.78 1007.81 1008.52 1008.68 1008.62 1009.08 1009.15 1009.14 1009.03 1009.12 1009.35 1009.34 1009.19 1009.08 1008.97 1008.77 1008.55 1008.28 1008.03 1007.79 1007.37 1007.06 1006.84 1006.65 1006.92 1006.95 1007.29 1007.37 1007.91 1008.15 1008.40 1008.92 1008.95 1008.96 1009.13 1009.09 1009.32 1008.98 1008.68 1008.32 1008.03 1007.78
1009.04 1008.32 1008.58 1008.76 1009.13 1009.55 1009.26 1008.06 1007.95 1008.23 1008.21 1008.43 1008.94 1009.09 1009.26 1009.29 1009.53 1009.78 1009.65 1009.44 1009.24 1008.98 1008.75 1008.44 1008.20 1007.70 1007.34 1007.08 1006.70 1006.60 1006.57 1006.67 1006.55 1006.50 1006.79 1007.03 1007.58 1007.83 1008.57 1008.81 1008.64 1008.65 1009.12 1009.22 1009.24 1008.77 1007.96 1007.47 1006.99
1009.19 1008.98 1008.87 1008.72 1008.98 1009.22 1008.78 1007.95 1007.69 1007.82 1007.92 1008.39 1008.69 1009.11 1009.36 1009.52 1009.82 1010.03 1009.94 1009.82 1009.53 1009.15 1008.88 1008.45 1007.99 1007.70 1007.34 1006.89 1006.35 1006.17 1005.96 1006.10 1006.18 1006.09 1006.21 1006.51 1007.08 1007.43 1008.13 1008.52 1008.46 1008.44 1008.49 1008.60 1008.80 1008.42 1008.65 1007.29 1006.57
1010.34 1009.87 1009.29 1009.01 1009.36 1009.75 1008.63 1008.14 1007.65 1007.55 1007.65 1008.29 1008.78 1009.23 1009.43 1009.58 1009.76 1009.90 1009.88 1009.85 1009.63 1009.29 1008.89 1008.41 1007.85 1007.40 1007.15 1006.19 1005.33 1005.08 1005.09 1005.18 1005.29 1005.61 1006.02 1006.41 1006.66 1007.00 1007.40 1007.51 1007.40 1007.55 1007.85 1007.57 1008.09 1008.08 1007.90 1008.05 1006.94
1010.53 1009.98 1009.33 1009.47 1009.50 1009.69 1008.67 1007.79 1007.50 1007.50 1007.99 1008.71 1009.19 1009.37 1009.51 1009.52 1009.62 1009.71 1009.60 1009.60 1009.46 1009.25 1008.92 1008.34 1007.80 1007.17 1006.77 1006.06 1004.98 1004.54 1004.33 1004.22 1004.25 1004.71 1005.46 1006.14 1006.46 1006.62 1006.75 1006.92 1006.79 1006.83 1006.69 1006.80 1007.19 1007.49 1007.24 1006.69 1005.98
1010.22 1010.06 1010.11 1010.22 1009.99 1009.33 1008.27 1007.07 1006.21 1007.68 1008.33 1008.91 1009.18 1009.50 1009.49 1009.58 1009.63 1009.54 1009.39 1009.37 1009.24 1009.03 1008.72 1008.35 1007.72 1006.95 1006.38 1006.10 1005.24 1004.68 1004.54 1004.47 1004.48 1004.68 1005.16 1005.52 1006.00 1006.13 1006.26 1006.38 1006.38 1006.38 1006.41 1005.96 1005.98 1006.59 1006.73 1006.52 1005.73
1010.58 1010.99 1011.18 1010.67 1009.99 1008.71 1008.76 1006.89 1006.27 1006.87 1007.78 1008.55 1008.89 1009.18 1009.42 1009.61 1009.58 1009.52 1009.31 1009.07 1008.89 1008.95 1008.78 1008.45 1007.96 1007.02 1006.19 1005.87 1005.17 1004.28 1003.98 1003.59 1003.43 1003.96 1004.15 1004.87 1005.71 1005.72 1005.74 1005.91 1006.08 1006.18 1006.17 1005.99 1006.00 1005.86 1005.98 1006.01 1005.65
1011.20 1011.66 1011.31 1010.76 1009.69 1009.17 1007.56 1007.98 1005.96 1007.31 1007.61 1007.74 1008.12 1009.08 1009.37 1009.75 1009.75 1009.54 1009.33 1009.14 1008.76 1008.61 1008.54 1008.52 1008.18 1007.44 1006.59 1005.87 1005.48 1004.59 1004.44 1003.56 1003.76 1003.66 1004.10 1004.74 1005.23 1005.48 1005.63 1005.85 1005.85 1006.08 1006.08 1005.69 1005.65 1005.54 1005.57 1005.43 1005.39
1012.25 1011.65 1010.64 1009.71 1009.70 1008.32 1007.78 1008.26 1006.43 1006.46 1007.02 1007.25 1008.21 1008.73 1009.53 1009.88 1009.90 1009.70 1009.37 1009.21 1008.86 1008.81 1008.91 1008.40 1008.34 1007.96 1006.87 1005.88 1005.41 1005.01 1004.35 1003.99 1003.54 1003.51 1003.65 1003.84 1004.48 1004.73 1005.43 1005.63 1005.54 1005.54 1005.56 1005.83 1005.49 1005.26 1004.88 1004.66 1004.75
1011.97 1011.37 1010.16 1008.90 1008.29 1007.46 1008.34 1008.38 1007.32 1007.39 1007.70 1008.22 1008.67 1009.14 1009.69 1010.19 1010.12 1009.96 1009.41 1009.20 1009.08 1008.94 1009.28 1008.91 1008.60 1008.53 1007.96 1006.60 1005.92 1005.45 1004.98 1004.99 1004.50 1003.85 1003.71 1003.96 1004.06 1003.99 1004.45 1005.26 1005.35 1005.06 1004.81 1004.69 1004.77 1004.52 1004.37 1004.12 1004.18
1011.98 1012.19 1011.36 1010.00 1009.19 1008.38 1008.81 1007.44 1007.15 1008.57 1009.18 1009.30 1009.56 1009.83 1010.18 1010.51 1010.54 1010.28 1009.89 1009.60 1009.51 1009.41 1009.53 1009.54 1009.15 1008.89 1008.61 1007.73 1006.50 1006.02 1005.61 1004.92 1004.55 1004.26 1004.41 1004.49 1004.31 1004.20 1005.00 1005.28 1005.15 1005.05 1004.82 1004.63 1004.42 1004.13 1004.03 1003.78 1003.61
1011.88 1012.42 1012.54 1012.24 1011.46 1009.83 1008.36 1007.05 1007.22 1007.47 1008.79 1009.22 1009.52 1010.00 1010.70 1010.85 1010.98 1010.57 1010.02 1009.75 1010.16 1010.21 1009.98 1010.06 1009.77 1009.36 1008.76 1008.69 1007.43 1006.68 1006.22 1006.00 1005.43 1005.18 1005.25 1005.13 1005.32 1005.54 1005.59 1005.54 1005.26 1004.99 1004.69 1004.40 1004.38 1004.15 1004.02 1004.01 1004.12
1012.89 1012.90 1013.00 1012.80 1011.89 1010.21 1008.99 1008.38 1007.27 1008.00 1008.66 1009.17 1009.71 1010.13 1010.50 1010.63 1011.15 1011.10 1010.58 1010.58 1010.59 1010.44 1010.49 1010.57 1010.35 1009.97 1009.43 1009.19 1008.46 1007.42 1006.85 1006.57 1006.55 1006.49 1006.69 1006.38 1006.48 1006.65 1006.16 1005.59 1005.58 1005.38 1005.11 1004.85 1004.72 1004.39 1004.42 1004.48 1004.28
1012.82 1012.75 1012.95 1013.19 1013.58 1012.33 1010.75 1008.75 1008.58 1009.13 1009.28 1009.72 1010.07 1010.60 1011.01 1011.04 1011.16 1011.24 1011.23 1011.15 1010.94 1010.49 1010.41 1010.64 1010.78 1010.40 1010.02 1010.19 1009.35 1008.20 1007.49 1007.43 1007.07 1006.78 1006.69 1006.86 1006.77 1006.39 1005.92 1005.73 1005.79 1006.01 1005.61 1005.51 1005.39 1005.08 1005.00 1005.05 1005.22
1013.77 1013.51 1013.77 1013.84 1013.87 1013.70 1012.84 1010.46 1010.32 1009.87 1009.95 1010.42 1011.08 1012.13 1011.57 1011.36 1011.49 1011.86 1011.97 1012.07 1011.23 1010.95 1010.81 1010.73 1011.08 1011.05 1011.00 1011.28 1009.59 1008.64 1007.91 1007.78 1007.14 1007.03 1007.46 1007.50 1007.14 1006.84 1006.76 1006.94 1006.92 1006.99 1006.75 1006.42 1006.09 1005.81 1005.91 1006.09 1006.29
Wind_Speed
11 7 5 6 8 7 5 6 3 8 4 7 8 6 11 13 11 8 8 5 5 8 11 11 9 11 10 10 10 10 10 11 12 12 12 13 11 11 11 10 11 10 11 10 8 7 6 5 4
4 5 6 4 9 8 8 4 7 9 8 8 4 5 1 14 15 9 6 6 4 7 10 12 11 10 11 10 9 10 10 10 11 12 12 12 11 11 10 11 11 11 10 9 8 6 5 5 3
9 7 7 4 4 5 5 6 10 9 4 4 1 7 7 8 12 6 9 6 5 6 9 12 11 10 12 12 11 10 11 11 12 12 12 12 11 10 10 9 10 10 9 8 7 6 5 4 3
7 7 5 10 8 6 4 7 9 9 5 7 2 9 8 12 7 8 6 5 5 7 9 14 11 10 10 11 10 10 11 11 12 13 13 12 11 11 10 10 9 9 9 8 7 6 4 4 3
6 4 5 4 5 6 6 7 7 9 4 9 2 7 9 13 8 5 4 2 5 7 8 12 9 9 9 9 9 8 8 9 9 10 12 12 12 11 11 11 10 10 9 8 7 6 5 4 4
6 5 8 9 7 5 6 7 7 8 10 11 8 5 8 12 12 8 5 6 5 6 4 11 10 8 8 8 8 9 9 9 9 9 10 11 10 11 11 10 10 10 9 8 7 6 5 5 4
4 7 2 5 10 8 6 6 8 8 10 11 9 1 5 13 13 10 5 3 3 4 5 7 10 10 8 8 8 8 8 8 8 8 9 10 10 10 10 10 11 10 9 8 7 7 6 6 5
2 3 7 3 10 6 4 4 5 8 9 5 12 6 7 13 12 9 8 5 4 2 2 4 5 9 9 13 12 10 10 10 9 9 8 8 10 11 11 9 11 11 10 9 8 8 7 7 7
2 5 6 4 5 6 4 4 5 2 5 7 7 9 10 11 11 9 7 6 2 2 3 5 4 6 8 8 12 12 11 11 10 10 10 9 10 12 13 12 8 13 12 11 10 9 9 9 11
3 2 6 5 5 2 2 4 4 3 1 4 7 9 11 10 8 10 9 9 9 7 6 7 6 8 7 5 6 8 9 10 11 11 11 11 11 10 8 9 12 10 11 12 11 11 11 10 10
3 8 5 6 4 3 2 2 3 5 2 8 12 14 13 12 10 9 9 9 10 10 7 9 4 6 9 6 6 5 5 6 8 12 11 10 8 8 8 7 8 10 14 10 13 12 11 13 10
10 6 4 5 4 3 1 4 4 4 7 8 11 13 13 11 10 10 11 10 10 11 12 11 8 6 8 8 6 7 6 6 7 9 12 9 7 9 8 7 8 8 8 10 11 8 10 11 10
6 4 2 4 3 2 2 5 6 5 5 8 11 12 12 11 11 10 9 11 11 11 11 12 11 10 10 9 9 9 8 7 8 8 9 10 10 8 7 8 9 8 8 9 9 10 9 11 12
3 2 4 1 2 4 8 9 6 3 6 10 11 10 8 9 10 9 10 11 12 11 11 11 11 10 10 11 11 10 8 8 8 8 8 11 10 8 8 8 8 9 9 9 8 10 9 10 11
1 7 7 2 3 2 13 13 12 2 9 11 10 9 8 7 9 9 11 12 12 11 12 11 11 11 11 12 12 11 10 9 8 7 7 11 11 11 10 8 9 9 6 9 9 10 10 10 10
3 6 6 6 3 5 8 11 4 4 12 13 8 5 6 8 10 12 13 13 13 12 13 14 11 12 12 12 11 10 10 9 9 8 9 12 12 11 9 9 9 8 9 4 9 10 10 11 11
4 7 7 7 5 8 8 16 6 13 13 9 5 3 5 8 10 11 13 14 14 14 14 14 13 14 12 11 11 11 11 10 10 9 8 10 10 11 8 8 9 8 8 8 5 10 11 11 11
9 10 9 11 7 12 15 16 15 14 13 8 4 4 6 7 8 9 12 12 13 13 14 14 13 13 13 11 9 10 10 11 11 10 10 10 8 10 7 8 10 8 9 10 7 11 10 15 12
7 11 13 11 11 11 13 18 17 17 10 6 3 5 6 7 8 9 10 12 14 15 15 15 15 14 10 10 10 10 11 12 10 10 10 10 9 9 9 10 11 9 11 12 12 10 13 7 15
9 11 12 10 5 13 16 24 19 10 1 1 3 5 7 8 10 11 12 13 14 15 17 17 16 14 10 9 10 9 9 11 11 9 9 9 11 11 10 10 10 11 11 12 14 13 10 11 15
10 10 12 14 17 17 15 19 2 7 4 3 0 3 5 7 9 11 13 13 15 17 18 18 19 16 11 10 10 9 8 7 5 7 8 10 12 11 10 12 11 11 11 12 12 12 17 11 6
14 8 9 15 17 15 16 10 11 5 8 7 3 6 6 8 9 10 13 14 14 15 17 19 20 18 12 8 11 11 10 12 10 5 5 5 9 10 11 11 11 11 12 11 14 10 12 12 12
11 9 15 18 21 16 16 8 6 4 10 11 5 5 4 8 10 12 12 13 14 14 15 17 20 20 16 9 9 8 11 7 7 6 7 8 7 11 11 10 10 9 10 12 14 13 12 11 12
9 13 21 11 8 11 7 7 7 5 6 10 11 3 4 7 12 14 12 12 13 13 16 15 18 20 21 15 8 8 10 9 8 8 7 6 9 9 9 9 9 10 9 9 11 13 16 13 10
8 14 9 7 8 10 4 10 13 16 9 9 8 6 4 10 14 15 16 14 13 12 15 15 17 19 21 19 12 7 9 7 11 5 5 6 8 7 6 5 9 9 10 11 12 13 15 14 10
14 7 8 12 13 19 18 9 7 5 5 5 3 4 7 12 15 16 17 13 13 14 13 15 15 17 20 20 16 10 8 6 6 2 6 7 7 8 9 9 10 11 13 13 12 10 11 13 12
3 8 9 13 18 18 12 11 12 5 5 6 8 4 11 13 17 18 17 10 10 11 12 13 14 16 18 21 19 13 10 10 8 6 5 5 6 8 10 11 12 13 12 13 11 9 9 8 6
11 9 8 7 8 15 14 22 15 8 12 5 10 8 12 13 13 13 13 11 12 8 11 11 12 14 18 17 18 13 12 12 11 8 8 9 8 7 8 10 12 12 10 9 10 7 5 6 4
9 11 11 11 9 15 17 9 18 22 18 11 10 13 18 12 9 9 10 11 10 10 9 11 11 13 13 20 17 15 13 12 10 10 11 11 10 10 11 11 12 12 11 9 7 5 3 2 3
7 9 10 9 14 12 14 19 23 12 17 7 10 15 17 10 7 9 9 13 12 13 13 11 11 10 11 15 18 17 14 14 13 13 12 12 12 11 12 11 11 11 10 8 6 5 5 2 5
Wind_Direction
253 237 242 241 239 244 126 70 329 354 354 0 332 317 11 32 16 35 59 73 39 133 133 155 132 140 139 132 138 143 146 140 140 143 147 151 155 158 155 153 155 159 160 160 156 150 144 146 144
267 213 224 273 259 208 118 11 15 356 346 329 256 243 26 74 26 67 32 45 42 134 150 150 148 141 143 139 140 146 147 140 141 145 148 152 156 160 157 156 162 172 172 171 166 162 160 156 162
241 241 260 262 270 282 111 30 6 350 2 355 193 19 36 359 12 10 38 34 72 140 155 127 156 145 151 152 157 153 149 152 153 153 151 156 161 158 158 166 170 183 185 187 181 180 174 178 184
216 193 209 252 97 64 58 35 0 10 68 23 327 87 88 29 351 6 41 56 97 134 158 125 160 157 158 159 163 162 160 163 164 162 158 162 165 163 167 173 182 191 198 197 202 199 205 206 213
227 242 219 205 105 122 78 29 1 33 26 31 327 93 84 34 32 39 56 61 91 117 141 150 154 162 161 163 169 173 172 171 173 173 171 175 172 174 177 179 188 196 202 207 210 221 223 230 243
212 283 225 185 125 129 80 22 11 24 31 30 56 107 78 46 27 16 28 62 62 106 142 132 153 169 165 174 182 179 176 181 183 182 184 183 182 184 182 184 193 204 208 211 217 221 232 237 247
278 246 66 135 141 122 37 353 25 352 26 31 355 67 82 29 10 357 15 42 75 77 155 167 176 170 176 179 185 192 186 190 194 194 191 189 190 193 194 191 195 205 213 213 216 219 227 245 246
257 260 168 191 180 103 42 339 356 19 39 357 358 32 20 355 351 339 350 342 336 101 202 211 204 187 204 179 186 192 196 201 198 202 208 207 201 203 201 198 206 207 213 214 218 225 229 238 244
274 224 153 130 189 101 50 330 41 67 15 49 46 25 3 352 345 341 336 296 284 265 284 256 260 213 236 235 164 182 200 204 208 208 211 207 226 207 214 217 215 201 212 216 220 224 234 240 244
279 154 76 65 68 23 44 335 5 291 356 34 7 2 354 349 355 340 331 326 321 320 297 224 194 247 225 236 229 206 207 207 209 213 212 217 224 232 235 219 188 208 225 226 224 225 231 239 255
11 88 126 113 46 353 40 130 7 319 281 11 342 336 333 331 333 329 326 323 317 317 298 280 227 248 273 219 227 226 208 217 212 221 220 218 231 226 224 238 208 223 212 235 210 218 224 236 246
112 82 42 66 95 176 164 331 281 315 349 344 328 326 313 313 319 320 325 323 314 316 312 304 288 255 241 272 220 247 226 219 236 215 218 230 216 225 236 244 233 223 233 224 238 238 236 241 239
99 92 107 110 144 162 277 292 306 237 4 324 328 314 313 312 314 316 312 309 315 303 311 301 305 285 277 240 257 249 245 210 234 232 220 237 230 230 224 240 253 247 241 236 239 244 241 231 233
52 47 158 89 52 187 307 301 236 147 338 322 326 318 316 316 335 332 344 332 318 312 300 304 291 285 265 255 252 251 236 248 222 236 235 231 244 232 239 231 235 252 244 246 240 241 243 234 243
181 214 181 206 333 304 326 260 209 353 323 319 333 324 330 348 348 349 350 340 337 317 310 303 291 279 273 252 246 245 243 228 236 223 230 239 241 230 244 239 239 244 257 246 258 254 246 249 251
230 234 270 136 294 113 305 291 343 338 320 319 331 322 330 351 354 1 344 338 335 327 320 308 301 287 275 263 250 237 249 240 236 242 223 213 227 233 235 245 249 259 258 270 261 243 240 237 237
187 324 323 325 303 306 307 300 296 308 314 323 302 344 348 348 11 6 353 349 339 333 326 317 311 289 272 261 253 238 246 235 249 228 231 219 228 231 221 248 262 245 235 246 263 270 247 246 235
337 325 317 310 331 315 299 290 305 305 310 308 291 350 8 12 24 9 0 358 353 347 335 323 312 305 290 268 242 246 236 233 231 235 231 229 228 237 224 232 255 257 252 245 234 239 249 252 246
314 306 304 309 342 310 302 298 300 304 294 256 337 352 11 10 10 10 14 8 3 360 352 340 327 318 297 262 229 224 224 226 221 231 235 234 228 232 233 233 247 238 247 250 239 238 238 257 264
311 301 302 314 323 315 303 299 295 298 304 273 342 356 358 358 2 4 4 7 4 3 358 351 342 327 302 263 248 243 238 230 220 221 223 227 233 225 230 248 262 262 262 250 248 235 237 235 237
308 309 321 316 313 285 287 288 230 168 222 173 21 328 349 359 353 357 358 5 2 4 360 357 351 340 320 281 258 236 248 259 209 219 221 225 233 235 235 245 252 268 262 265 252 233 243 246 257
301 19 301 295 304 303 318 291 251 194 214 217 305 321 345 352 345 345 342 354 357 3 2 360 357 353 343 309 257 234 233 224 217 231 216 245 234 238 238 248 258 257 270 263 261 262 247 224 238
306 321 293 290 294 294 275 238 94 140 237 219 1 338 338 1 353 349 343 340 337 353 3 4 359 357 354 341 281 251 235 227 194 189 167 208 232 244 252 253 260 266 264 259 263 251 250 245 245
315 287 293 272 261 255 76 282 296 328 247 287 321 334 334 349 341 341 335 330 341 349 352 359 5 359 354 357 329 267 267 244 214 204 192 212 231 232 231 263 268 275 258 265 272 264 262 251 244
256 314 311 287 262 301 90 267 273 298 317 289 310 331 325 341 330 334 330 335 328 347 354 350 5 2 357 356 356 321 287 290 265 251 233 254 264 267 263 318 294 294 297 275 273 268 259 258 239
295 301 294 302 310 307 305 269 54 5 333 326 324 304 315 338 332 326 324 332 333 344 346 353 0 8 359 350 357 4 343 278 277 262 322 283 286 315 336 301 300 299 298 296 282 276 267 264 264
79 253 1 287 276 269 272 278 213 244 229 243 273 330 329 338 327 328 320 329 343 353 345 359 0 5 8 352 348 350 8 2 8 14 320 11 336 354 337 314 315 310 310 300 290 269 262 252 231
251 338 281 255 295 298 308 307 294 10 332 264 317 328 324 325 338 339 341 343 336 340 8 343 356 4 360 349 342 349 357 7 7 4 8 15 1 336 312 322 324 318 311 302 288 270 259 247 211
279 246 232 259 286 290 297 287 335 328 307 314 300 333 324 331 319 329 347 345 348 350 351 2 356 353 9 334 330 343 357 355 2 9 4 358 349 337 341 344 341 336 330 323 303 302 302 122 107
258 280 296 277 285 290 292 282 285 340 345 281 1 299 316 313 337 341 340 328 333 344 348 344 344 356 348 321 320 330 350 347 0 8 9 353 349 359 1 11 6 3 354 355 357 27 20 54 79